Regional Weather Roundup
Issued by NWS

Home | Current Version | Previous Version | Text Only | Print | Product List | Glossary Off
Versions: 1 2 3 4 5 6 7 8 9 10 11 12 13 14 15 16 17 18 19 20 21 22 23 24 25 26 27 28 29 30 31 32 33 34 35 36 37 38 39 40 41 42 43 44 45 46 47 48 49 50

000
ASUS43 KDTX 272301
RWRMI
MICHIGAN HOURLY REGIONAL WEATHER ROUNDUP
NATIONAL WEATHER SERVICE DETROIT/PONTIAC MI
600 PM EST THU NOV 27 2014

NOTE: "FAIR" INDICATES FEW OR NO CLOUDS BELOW 12,000 FEET WITH NO
SIGNIFICANT WEATHER AND/OR OBSTRUCTION TO VISIBILITY.

MIZ047>049-052>055-059>063-066>070-074>076-081>083-280000-
SOUTHEAST LOWER MICHIGAN

CITY           SKY/WX    TMP DP  RH WIND       PRES   REMARKS
ADRIAN         PTCLDY    28  23  81 N7        30.23R WCI  21
ALMA           CLOUDY    24  14  67 W9        30.27R WCI  14
ANN ARBOR      FLURRIES  29  21  72 N12       30.22R WCI  19
BAD AXE        FLURRIES  26  18  72 NW13G18   30.22R WCI  14
CARO           CLOUDY    27  16  63 W9G17     30.23R WCI  17
DETROIT CITY   CLOUDY    33  20  58 NW8       30.22R WCI  26
DETROIT        CLOUDY    31  21  66 NW14G20   30.22R WCI  21
FLINT          CLOUDY    29  16  58 NW10      30.24R WCI  20
GROSSE ILE     CLOUDY    32  21  64 NW7       30.20R WCI  26
HILLSDALE      FLURRIES  29  25  86 NW9       30.22R WCI  20
HOWELL         CLOUDY    27  19  71 NW8       30.23R WCI  18

CITY           SKY/WX    TMP DP  RH WIND       PRES   REMARKS
JACKSON        LGT SNOW  27  23  85 NW7       30.23R FOG     WCI  19
LAMBERTVILLE   LGT SNOW  30  27  86 NW5       30.23R WCI  25
LANSING        FLURRIES  26  18  71 NW14      30.27R WCI  14
LAPEER         CLOUDY    27  15  62 NW10      30.23R WCI  17
MASON          FLURRIES  28  22  77 NW9       30.24R WCI  19
MONROE         LGT SNOW  30  28  93 NW6       30.21R WCI  24
PONTIAC        FLURRIES  27  17  66 NW12      30.20R WCI  17
PORT HOPE        N/A     27  14  58 NW14G28   30.19R WCI  16
PORT HURON     CLOUDY    28  19  69 N6        30.21R WCI  22
TRI CITIES     CLOUDY    27  14  58 NW15      30.26R WCI  15
TROY           CLOUDY    32  22  67 NW13G21   30.23R WCI  22
SAGINAW HB     CLOUDY    28  19  69 NW13      30.25R WCI  18
$$
MIZ043>046-050>051-056>058-064>065-071>073-077>080-280000-
SOUTHWEST LOWER MICHIGAN

CITY           SKY/WX    TMP DP  RH WIND       PRES   REMARKS
BATTLE CREEK   CLOUDY    27  18  69 NW10      30.28R WCI  17
BENTON HARBOR  FLURRIES  26  19  74 NW10      30.33R WCI  16
BIG RAPIDS     LGT SNOW  20  17  87 NW7       30.27R WCI  11
COLDWATER      CLOUDY    29  24  80 NW12G18   30.26R WCI  19
FREMONT        CLOUDY    21  14  75 NW8       30.31R WCI  11
HOLLAND        LGT SNOW  24  19  81 N6        30.33S WCI  17
GRAND RAPIDS   CLOUDY    24  14  65 NW14      30.30R WCI  12
IONIA          CLOUDY    25  16  68 NW9G17    30.27R WCI  16
KALAMAZOO      FLURRIES  25  19  78 NW12      30.30R WCI  14
LUDINGTON      CLOUDY    20  11  67 NW6       30.34R WCI  12
MARSHALL       CLOUDY    26  19  77 NW7G17    30.26R WCI  18
MOUNT PLEASANT PTCLDY    23  14  68 NW9       30.26R WCI  13
MUSKEGON       LGT SNOW  22  13  68 N14       30.34R WCI   9
SOUTH HAVEN    FLURRIES  28  20  73 N8G17     30.32R WCI  20
$$
MIZ016>042-280000-
NORTHERN LOWER MICHIGAN

CITY           SKY/WX    TMP DP  RH WIND       PRES   REMARKS
ALPENA         MOCLDY    18  12  77 NW10      30.23R WCI   6
BEAVER ISLAND  CLOUDY    19   8  61 NW9G18    30.29R WCI   8
BELLAIRE       FLURRIES  21  14  75 NW3       30.28S
CADILLAC       CLOUDY    17  11  78 W8        30.24R WCI   6
CHARLEVOIX     LGT SNOW  20  12  73 NW15G24   30.30R WCI   6
FRANKFORT      CLOUDY    20  11  68 NW10G17   30.32R WCI   9
GAYLORD        FLURRIES  15  10  80 NW8       30.20R WCI   4
GRAYLING       FLURRIES  18  14  86 NW6       30.23S WCI  10
HARBOR SPRINGS CLOUDY    19   7  60 NW7       30.26S WCI   9
HOUGHTON LAKE  FLURRIES  19  12  74 NW13      30.23S WCI   6
MANISTEE       CLOUDY    21  10  63 N8G16     30.32R WCI  12
OSCODA         CLEAR     21  11  64 NW13G18   30.22R WCI   9
PELLSTON       LGT SNOW  18  11  74 NW16      30.26R WCI   3
ROGERS CITY    CLOUDY    19  13  79 W13G18    30.23S WCI   5
TRAVERSE CITY  LGT SNOW  21  11  65 NW13      30.29R WCI   9
$$
MIZ007>008-015-280000-
EASTERN UPPER MICHIGAN

CITY           SKY/WX    TMP DP  RH WIND       PRES   REMARKS
KINROSS        CLOUDY    16  16 100 W10       30.22S WCI   3
MACKINAC ISLAN CLEAR     17   9  72 NW15G23   30.25R WCI   2
NEWBERRY       PTCLDY    12   7  80 W8        30.26R WCI   0
S. S. MARIE    LGT SNOW  15   9  76 N12       30.22F WCI   2
MUNISING         N/A     20  15  81 N15       30.31R WCI   6
$$
MIZ004>006-011>014-085-280000-
CENTRAL UPPER MICHIGAN

CITY           SKY/WX    TMP DP  RH WIND       PRES   REMARKS
MANISTIQUE     LGT SNOW  12  10  91 W12       30.30R WCI  -2
ESCANABA       CLEAR     12   0  57 NW6       30.34S WCI   3
MENOMINEE      CLEAR     14   1  57 NW3       30.35S
$$
MIZ001>003-009>011-084-280000-
WESTERN UPPER MICHIGAN

CITY           SKY/WX    TMP DP  RH WIND       PRES   REMARKS
IRON MOUNTAIN  CLEAR      7  -2  66 NW6       30.30S WCI  -3
HOUGHTON       FLURRIES   8   2  76 NW6       30.30F WCI  -2
COPPER HARBOR    N/A     15   9  76 N15       30.33S WCI   0
IRONWOOD       CLOUDY     7   1  78 SW6       30.30F WCI  -3
$$

ABBREVIATIONS USED IN REMARKS
   TC - TEMPERATURE IN CELSIUS
  WCI - WIND CHILL INDEX
   HX - HEAT INDEX
  VSB - VISIBILITY



USA.gov is the U.S. government's official web portal to all federal, state and local government web resources and services.